Location: Trois-Rivi�res
(46.3500°N, 72.5500°W)
Time: 09:34:34
(UTC-04:00)

Daily predictions for brighter satellites

Satellite Brightness Start Highest point End
(mag) Time Altitude Azimuth Time Altitude Azimuth Time Altitude Azimuth
USA 229 DEB 3.8 21:14:41 10° SSW 21:21:29 63° ESE 21:28:24 10° NE
USA 229 3.8 21:14:48 10° SSW 21:21:35 62° ESE 21:28:30 10° NE
S3M 4.4 21:17:20 10° NNW 21:23:23 65° W 21:29:25 10° S
Cosmos 2322 Rocket 3.3 21:18:44 10° NW 21:24:00 42° WSW 21:29:14 10° S
Cosmos 1726 3.8 21:21:51 10° NNE 21:24:42 20° ENE 21:27:32 10° ESE
Cosmos 773 Rocket 4.2 21:20:58 10° NNW 21:26:11 79° WSW 21:31:23 10° SSE
CZ-4 SHROUD 3.2 21:25:41 10° SSE 21:28:48 77° ENE 21:31:57 10° N
SL-12 R/B (AUX MOTOR) 4.1 21:30:57 10° WSW 21:32:40 42° SSE 21:34:05 10° E
SL-16 R/B 3.5 21:28:47 10° NW 21:33:59 38° WSW 21:39:10 10° S
Cosmos 2360 Rocket 2.3 21:28:45 10° NNW 21:34:26 90° ENE 21:40:06 10° SSE
ATLAS CENTAUR R/B 4.0 21:37:46 10° W 21:39:53 13° WSW 21:41:54 10° SW
SL-23 DEB 4.1 21:34:58 10° WNW 21:40:35 70° SSW 21:43:59 11° SE
Cosmos 1908 3.6 21:37:13 10° NNW 21:41:06 64° W 21:44:57 10° S
Cosmos 968 Rocket 4.4 21:36:12 10° SW 21:41:16 55° WNW 21:46:27 10° NNE
NOSS 3-1 (A) 4.5 21:37:02 10° SSE 21:41:34 23° ESE 21:46:26 10° ENE
Cosmos 1500 Rocket 4.2 21:38:26 10° SSW 21:42:45 59° WNW 21:47:08 10° N
deb Chang Zheng 4 4.5 21:41:51 10° N 21:46:05 53° WNW 21:50:18 10° SSW
Aureole 3 4.4 21:44:47 10° S 21:51:30 70° E 21:56:50 10° NNE
MetOp-B 4.3 21:46:25 10° S 21:51:46 78° WSW 21:57:10 10° NNW
Meteor 1-4 Rocket 3.7 21:53:44 10° N 21:57:09 31° ENE 21:59:48 14° SE
Cosmos 2242 Rocket 4.4 21:53:56 10° N 21:58:06 38° ENE 22:01:36 14° SE
Cosmos 1674 3.5 21:56:35 10° SSW 22:00:21 54° WNW 22:04:10 10° N
Envisat 4.1 21:55:46 10° SSW 22:00:32 41° W 22:05:21 10° NNW
SPOT 5 3.6 21:56:35 10° S 22:00:58 48° W 22:05:39 10° NNW
Cosmos 2227 Rocket 3.8 22:00:43 12° SE 22:03:17 16° E 22:06:40 10° ENE
ATLAS 2AS CENTAUR R/B 4.3 22:00:49 12° SE 22:04:33 18° ESE 22:09:20 10° ENE
SL-08 RB Rocket 3.7 22:02:37 13° SSE 22:06:36 74° ENE 22:11:06 10° N
Cosmos 1626 4.2 22:05:29 12° ESE 22:06:54 14° E 22:08:50 10° NE
Cosmos 1833 4.5 22:02:03 10° SSW 22:07:46 75° WNW 22:13:28 10° NNE
Cosmos 1300 2.7 22:03:56 10° N 22:07:48 79° E 22:11:00 14° SSE
Cosmos 2112 Rocket 4.3 22:02:42 10° NNW 22:07:53 65° WSW 22:12:50 11° S
Cosmos 2333 Rocket 3.2 22:03:01 10° NNW 22:08:21 38° NE 22:13:11 12° ESE
DELTA 2 DEB (DPAF) 4.3 22:05:05 14° SSE 22:08:48 61° ENE 22:13:14 10° N
SL-16 R/B 4.1 22:08:14 10° N 22:12:21 20° NE 22:16:27 10° E
USA 245 2.9 22:10:34 14° S 22:12:40 48° WSW 22:14:58 10° NNW
Cosmos 1437 3.6 22:10:23 10° SSW 22:13:36 52° WNW 22:16:50 10° N
Cosmos 2298 Rocket 4.3 22:08:35 10° S 22:13:41 49° ESE 22:18:49 10° NNE
Cosmos 2315 Rocket 4.3 22:12:55 10° NNW 22:19:05 67° W 22:25:12 10° S
COSMOS 2428 2.8 22:14:30 10° NNW 22:20:13 81° WSW 22:24:46 16° SSE
CARTOSAT-1 3.9 22:17:10 18° SE 22:20:14 52° ENE 22:24:27 10° N
ATLAS 3B R/B 3.9 22:15:09 10° NNW 22:21:43 36° NE 22:27:54 10° E
Cosmos 1937 Rocket 4.2 22:18:23 15° SSE 22:22:07 36° ESE 22:26:50 10° NE
Sich 1 3.1 22:20:01 13° S 22:23:53 67° E 22:28:16 10° NNE
Cosmos 1633 Rocket 3.1 22:21:04 14° S 22:24:46 65° E 22:29:07 10° NNE
Cosmos 2151 4.1 22:21:01 10° SSW 22:25:02 44° WNW 22:29:06 10° N
YAOGAN 6 4.1 22:23:48 10° SSW 22:27:06 32° W 22:30:23 10° NNW
NOSS 3-1 (C) 3.4 22:23:00 10° SSW 22:28:49 62° ESE 22:35:18 10° NE
Cosmos 2297 Rocket 3.7 22:28:40 16° SE 22:30:37 19° E 22:34:28 10° ENE
Cosmos 1455 3.2 22:27:08 10° N 22:30:37 33° ENE 22:32:31 21° SE
CZ-4C R/B 3.0 22:29:16 20° S 22:31:34 79° WSW 22:35:03 10° NNW
H-2A R/B 2.2 22:29:35 18° SSE 22:33:38 79° ENE 22:39:05 10° NNW
Cosmos 2219 Rocket 2.2 22:31:14 10° NNW 22:36:51 73° ENE 22:40:42 21° SE
Cosmos 1805 Rocket 4.2 22:34:27 10° SSW 22:38:50 56° WNW 22:43:13 10° N
Lacrosse 4 Rocket 3.6 22:36:13 10° N 22:39:31 20° NE 22:42:51 10° E
ARGOS 3.9 22:37:03 12° S 22:41:56 49° W 22:47:10 10° NNW
Landsat 7 4.0 22:39:24 18° S 22:42:55 70° WSW 22:47:41 10° NNW
Nadezhda 1 Rocket 3.9 22:42:20 10° N 22:48:26 75° E 22:52:38 21° SSE
Cosmos 292 Rocket 3.8 22:46:01 10° NNW 22:50:48 75° WSW 22:53:38 24° S
Cosmos 2058 4.3 22:47:10 10° SW 22:50:59 37° WNW 22:54:50 10° N
Cosmos 1980 3.8 22:46:31 10° NNW 22:52:11 71° ENE 22:55:44 23° SE
Spot 4 3.8 22:52:29 24° SSE 22:55:27 88° ENE 23:00:21 10° NNW
Cosmos 2219 3.9 22:52:26 10° SW 22:58:05 57° WNW 23:03:47 10° NNE
COSMOS 2455 3.7 22:52:22 10° NNW 22:58:08 44° NE 23:02:42 16° ESE
Terra 2.0 22:55:46 22° S 22:58:48 69° WSW 23:03:34 10° NNW
SAR-Lupe-2 3.7 22:57:19 29° S 22:59:00 70° WSW 23:02:35 10° NNW
Cosmos 1726 3.7 22:56:46 10° NNW 23:00:09 31° W 23:02:46 14° SSW
SL-14 R/B 4.4 22:56:59 10° SSW 23:00:44 41° WNW 23:04:34 10° N
Cosmos 1271 Rocket 3.4 22:57:24 10° NNW 23:01:07 49° W 23:03:14 23° SSW
Cosmos 1703 3.4 22:58:43 21° SSW 23:01:16 73° W 23:05:11 10° N
Cosmos 1898 Rocket 3.6 22:56:37 10° SSW 23:01:48 78° WNW 23:07:02 10° NNE
Cosmos 1745 Rocket 4.0 22:57:28 16° S 23:02:39 88° W 23:08:52 10° N
Cosmos 2150 Rocket 4.3 22:57:48 10° SSW 23:03:15 76° WNW 23:08:45 10° NNE
Spot 2 4.4 22:58:59 10° NNE 23:04:09 78° ESE 23:07:28 22° S
Cosmos 2237 Rocket 2.2 22:59:37 10° NNW 23:05:23 81° ENE 23:08:42 26° SSE
Cosmos 1346 3.0 23:07:04 49° SSE 23:07:44 73° E 23:10:46 10° NNE
Cosmos 2082 3.9 23:07:21 24° S 23:10:41 53° ESE 23:16:16 10° NE
Cosmos 1709 Rocket 4.3 23:07:48 25° SSE 23:11:10 51° E 23:17:03 10° NNE
DMSP B5D2-2 4.1 23:05:54 10° NNE 23:11:10 82° WNW 23:15:08 18° SSW
CZ-4B R/B 3.9 23:10:23 11° E 23:11:43 13° ENE 23:13:27 10° NE
Cosmos 1470 Rocket 3.6 23:11:47 24° SSW 23:14:21 77° W 23:18:42 10° N
Cosmos 220 Rocket 4.0 23:12:13 20° SSW 23:15:17 83° WNW 23:19:45 10° NNE
CZ-4C R/B 4.5 23:09:58 10° NNW 23:15:33 27° NNE 23:21:39 10° E
Cosmos 1703 Rocket 4.1 23:11:32 10° N 23:15:43 44° ENE 23:17:24 30° SE
Cosmos 1933 Rocket 3.7 23:13:06 24° SSW 23:15:47 78° W 23:20:16 10° N
Cosmos 2221 Rocket 4.3 23:11:49 10° N 23:16:11 44° ENE 23:18:03 29° SE
IGS 5A 4.2 23:14:41 24° SSW 23:16:52 45° W 23:20:54 10° NNW
Okean 1-7 4.3 23:13:22 10° NNE 23:17:08 29° ENE 23:18:43 23° ESE
Cosmos 2360 Rocket 4.5 23:14:43 10° WNW 23:17:35 14° W 23:20:27 10° SW
SeaSat 1 2.7 23:15:33 26° SE 23:18:17 62° ENE 23:23:11 10° NNW
Cosmos 1933 3.7 23:17:13 10° N 23:21:13 53° ENE 23:22:33 36° SE
NOSS 0 Rocket 4.3 23:24:05 10° NW 23:30:03 53° WSW 23:33:19 26° S
Cosmos 2181 Rocket 4.1 23:23:50 10° N 23:30:13 73° E 23:33:42 29° SSE
NOSS 3-1 (A) 3.7 23:25:43 10° SW 23:31:43 72° NW 23:38:27 10° NE
Cosmos 192 4.5 23:33:08 10° NNW 23:38:02 66° WSW 23:40:02 35° S
CZ-4C R/B 3.7 23:40:38 36° ESE 23:41:21 41° ENE 23:44:44 10° N
Cosmos 1626 3.0 23:40:11 26° SW 23:41:55 45° WNW 23:45:33 10° N
Cosmos 2227 Rocket 2.2 23:42:28 19° SSW 23:46:35 81° WNW 23:52:18 10° NNE
ERBS 2.6 23:51:23 52° ESE 23:51:23 52° ESE 23:54:25 10° ENE
Cosmos 2333 Rocket 3.0 23:47:20 10° NW 23:52:39 40° WSW 23:55:11 26° SSW
